RH
11 11 11 11 11 11 11 11 12 11 11 11 11 11 12 12 12 13 13 13 13 13 13 12 10 9 9 9 9 9 9 8 8 8 8 8 8 8 8 8 8 8 8 8 8 8 8 8 7 7 7 7 7 7 7 7 8 10 12 14 14 15 15 16 16 16 15 15 16 21 26 30 32 32 33 34 36 37 37 35 31 25 21 19 19 23 27 29
11 11 11 11 11 11 11 12 12 12 12 12 12 12 12 13 13 14 14 14 14 13 13 12 11 10 10 9 9 9 9 9 8 9 8 9 8 8 8 8 8 8 8 8 8 8 8 8 7 7 7 7 7 7 7 7 8 10 13 14 15 16 16 16 16 16 15 16 19 22 27 31 32 33 34 34 36 36 34 35 34 29 23 19 16 17 21 25
11 11 11 12 12 12 12 12 13 13 13 13 13 13 14 14 15 15 14 14 14 13 12 12 11 11 10 10 10 10 9 9 9 9 9 9 9 9 9 9 9 9 9 9 8 8 8 8 7 7 7 7 7 8 7 7 8 11 13 15 16 17 17 17 17 17 17 18 21 24 28 32 32 33 33 33 36 35 31 33 35 33 28 23 18 16 17 19
12 12 12 12 13 13 13 14 14 14 14 14 15 15 15 15 15 15 14 14 13 13 12 11 11 11 11 10 10 10 10 10 10 9 10 9 9 9 9 9 9 9 9 8 8 8 8 8 8 8 8 8 8 8 7 7 9 12 14 16 17 17 17 18 18 18 19 20 22 24 28 33 33 33 33 33 35 34 31 33 34 33 31 27 23 19 17 17
12 12 12 13 13 14 14 15 15 15 15 15 15 16 16 15 15 14 13 13 13 12 12 11 11 11 11 11 10 10 10 10 10 10 10 10 10 9 9 9 9 9 8 8 8 8 8 8 8 8 8 8 8 8 7 7 9 13 16 17 18 18 18 19 19 19 21 22 23 25 30 35 34 33 34 34 33 31 30 32 35 34 31 28 26 23 20 18
12 12 13 13 14 15 15 16 16 16 16 15 15 15 15 14 14 13 13 12 12 12 12 11 11 11 11 11 10 10 10 10 10 10 10 10 9 9 9 9 9 9 8 8 8 8 8 8 8 8 8 8 8 8 8 8 9 14 17 18 18 19 19 19 20 22 23 25 26 28 32 35 33 33 36 33 31 30 29 30 32 35 34 29 26 24 22 21
13 14 14 15 15 15 15 15 15 15 15 15 14 14 13 13 12 12 12 11 11 11 11 11 11 11 10 10 10 10 10 10 9 9 9 9 9 9 9 9 9 8 8 8 8 8 8 9 9 8 8 9 9 10 10 10 11 13 16 18 18 18 18 19 21 24 24 25 28 28 31 34 33 35 37 33 32 32 31 30 29 31 33 30 27 26 25 24
14 14 14 14 14 14 14 14 14 14 13 13 12 12 12 11 11 11 11 11 11 11 10 11 11 11 10 10 10 10 10 10 10 9 9 9 9 9 9 9 9 9 9 9 9 9 9 9 9 9 10 11 12 12 12 13 13 14 15 16 16 17 18 19 22 24 24 26 28 30 33 35 35 38 38 36 35 35 34 31 29 29 28 27 29 29 27 26
13 13 13 12 12 12 12 12 12 12 12 12 11 11 11 11 11 11 11 11 11 11 11 11 11 11 11 11 13 13 14 14 13 13 13 13 12 12 12 11 11 11 10 10 10 10 10 10 10 10 11 12 13 14 14 14 14 15 15 16 17 18 20 22 23 24 24 27 30 32 35 36 38 39 39 37 37 37 36 32 30 28 25 25 28 30 30 30
12 12 12 11 11 11 11 11 11 11 11 11 11 11 11 11 12 12 12 12 12 12 12 12 11 12 14 16 17 16 16 16 15 15 15 14 14 13 12 12 11 11 11 11 11 11 12 12 12 13 15 16 18 18 19 19 19 20 20 21 22 23 24 24 24 25 26 30 32 33 36 38 38 39 38 37 36 37 37 34 31 27 24 26 28 29 31 32
13 13 13 12 12 12 12 12 12 12 12 12 12 12 12 12 12 12 12 12 12 12 12 12 14 17 20 21 21 20 19 20 18 18 17 16 15 14 13 12 12 12 12 13 13 14 15 16 18 19 21 23 23 23 23 23 23 23 23 24 24 25 27 26 26 27 29 32 32 31 35 38 37 38 37 37 38 39 39 37 33 29 27 27 27 29 30 33
14 14 14 14 13 13 13 13 13 13 13 13 13 13 13 13 13 13 12 12 12 12 13 15 20 25 28 30 31 31 30 30 29 28 27 25 24 22 20 19 18 17 17 17 18 19 20 21 22 23 24 24 24 23 23 23 24 25 24 25 27 27 29 29 28 29 30 31 29 28 31 36 38 39 39 39 41 42 42 39 36 34 32 30 29 29 29 35
15 14 14 14 14 14 14 14 14 14 13 13 13 13 13 12 12 12 12 12 13 15 19 25 30 34 36 38 39 38 37 36 35 34 33 33 32 31 30 28 27 25 24 23 23 23 23 23 23 23 24 24 24 24 25 25 25 26 26 26 28 28 29 29 28 28 28 28 28 27 29 35 41 42 43 43 43 44 44 41 39 39 38 36 34 32 33 39
15 15 14 14 14 14 14 14 14 13 13 13 14 14 14 14 15 16 17 19 22 26 31 35 38 39 40 40 40 38 37 36 35 35 34 34 33 32 30 29 27 26 26 26 26 26 26 27 27 27 27 28 27 26 26 26 28 30 31 33 34 33 34 36 36 36 36 36 36 35 35 38 45 47 47 46 44 45 44 43 43 43 43 42 40 39 40 44
25 22 20 19 18 17 17 17 17 18 20 21 22 23 24 25 26 27 29 31 34 36 39 40 41 41 40 39 38 36 35 34 33 32 31 30 29 29 28 29 29 30 31 31 31 32 31 31 30 30 29 28 27 26 28 32 36 39 39 40 39 37 38 41 44 45 44 43 43 42 42 44 50 53 53 51 48 47 47 47 48 48 47 46 45 45 45 44
41 38 36 34 32 31 30 31 31 33 34 35 36 36 37 37 38 38 39 39 40 41 41 41 41 40 38 36 34 32 30 29 29 29 30 31 32 33 34 35 36 36 36 35 34 33 32 31 30 29 28 28 29 31 36 40 44 45 42 40 40 38 37 38 43 46 43 41 40 39 39 43 50 53 57 57 50 48 48 49 51 51 51 50 48 48 47 46
49 48 47 46 45 44 44 43 43 44 44 43 43 42 42 41 41 41 41 41 40 40 40 40 38 35 32 30 28 28 29 30 32 34 37 38 37 38 38 37 37 37 36 35 33 32 31 30 29 29 30 31 34 37 41 44 46 46 42 41 41 40 37 35 40 42 40 38 36 35 34 39 44 46 53 55 46 45 48 46 46 49 53 54 53 53 51 50
48 49 49 49 48 48 47 47 47 47 46 45 44 44 43 42 42 41 41 40 38 37 35 33 30 28 28 29 32 34 36 38 39 39 40 39 38 37 36 35 35 34 33 32 31 31 30 30 30 30 32 34 37 39 41 43 46 45 45 43 41 39 36 35 39 40 37 35 33 33 33 36 41 45 53 54 46 48 53 48 44 45 48 51 54 57 57 55
41 43 44 44 44 43 43 43 42 42 41 41 40 39 38 37 36 35 34 32 30 29 28 28 29 32 36 38 40 40 40 39 39 38 38 37 37 36 36 36 37 38 39 39 38 36 35 34 33 32 35 37 38 38 40 44 46 47 46 42 38 36 35 37 40 40 36 31 30 32 31 33 39 48 53 52 48 51 53 50 47 44 44 45 49 54 57 58
29 30 31 31 31 31 31 31 30 29 29 29 29 29 28 28 28 28 28 28 30 31 33 36 38 41 42 41 40 39 38 37 38 40 40 41 42 41 42 44 45 49 50 50 47 46 44 42 42 44 46 45 44 44 45 48 49 48 45 40 37 35 35 40 42 41 36 28 28 32 30 30 38 47 50 47 48 50 48 48 50 50 48 46 48 53 56 57
32 32 31 30 30 29 30 30 30 30 30 30 31 32 33 34 35 35 36 38 40 40 41 42 41 41 42 40 40 40 40 42 46 49 51 52 51 50 50 50 51 53 54 51 48 48 46 44 50 57 56 52 52 52 52 53 51 47 43 39 37 36 36 40 42 41 37 30 31 33 30 30 35 41 41 40 45 48 45 47 52 55 56 55 56 59 60 60
50 49 48 46 45 45 47 47 46 46 46 46 45 45 45 45 45 43 42 42 43 42 41 41 40 40 42 42 43 45 47 51 55 58 59 57 56 55 52 51 53 53 51 48 47 47 44 46 57 60 56 55 56 57 56 53 50 45 41 38 37 39 38 38 40 39 36 34 33 32 29 28 32 36 36 38 45 48 45 45 51 56 60 61 63 65 65 65
59 58 56 53 51 52 53 53 52 51 50 50 50 48 47 46 45 43 41 39 41 42 42 43 44 46 49 51 52 53 53 56 59 61 62 60 58 57 53 53 55 52 49 48 47 46 43 49 59 57 53 55 56 58 56 51 47 43 41 40 39 42 40 36 39 38 35 34 33 30 27 25 31 36 34 37 45 49 46 45 49 54 58 59 60 61 61 61
61 60 58 54 53 52 52 51 49 48 49 50 50 50 50 50 49 48 47 45 45 48 51 54 56 59 63 64 63 62 61 61 61 62 64 62 58 56 54 54 52 51 51 49 47 43 43 51 55 52 53 54 54 55 54 49 46 44 44 43 42 43 40 36 38 37 35 34 32 29 25 24 34 39 37 39 46 49 47 47 49 50 52 54 54 55 54 53
63 62 60 57 56 55 55 53 52 53 54 55 56 57 58 58 57 56 56 55 52 56 61 63 65 68 70 70 69 69 69 68 67 66 67 65 61 57 55 53 50 50 52 50 46 42 44 53 53 52 55 53 51 54 55 51 46 48 50 47 44 43 43 40 38 35 33 34 33 31 26 22 28 35 40 45 47 49 50 48 49 49 50 52 51 50 48 45
65 62 60 58 57 57 57 56 57 58 58 59 61 63 65 64 63 61 61 58 55 57 61 62 64 66 67 69 68 68 69 69 70 70 69 69 66 60 57 56 53 53 53 50 47 44 50 57 56 56 56 53 52 55 57 53 47 50 55 52 48 46 45 43 39 35 32 32 32 32 33 27 21 27 40 44 41 44 49 49 50 51 50 49 46 43 40 38
63 60 60 60 60 61 60 59 59 59 60 61 62 66 69 69 70 69 68 65 58 57 59 59 60 60 62 65 65 66 67 67 68 69 69 69 66 63 61 60 58 56 53 51 49 50 54 59 60 60 59 58 57 57 56 53 49 50 55 54 50 48 46 43 42 40 35 33 29 31 41 34 18 22 37 39 36 40 47 51 51 49 47 44 42 40 39 37
59 60 62 65 67 67 66 65 63 61 62 63 65 70 73 75 78 78 79 76 62 57 63 65 63 62 63 65 64 65 66 65 67 68 68 68 66 65 64 61 60 59 55 53 55 58 57 59 63 64 64 63 61 58 54 51 48 48 51 52 50 50 49 47 47 44 41 36 29 35 52 44 20 19 32 37 38 41 46 50 49 47 47 44 43 41 39 38
64 68 72 74 75 75 75 74 70 66 65 65 69 75 80 86 88 88 90 80 60 55 66 72 72 71 72 73 71 71 69 68 70 69 68 69 67 67 68 65 64 62 59 56 60 65 61 61 65 64 63 62 58 55 50 49 47 47 51 51 52 52 50 51 49 48 49 39 29 41 60 56 31 19 31 42 44 46 48 50 51 50 50 47 45 42 39 38
74 76 78 77 77 82 85 85 81 74 70 70 75 82 89 93 95 98 89 69 58 63 71 77 80 80 80 79 78 77 75 73 72 70 68 66 63 62 64 65 66 67 63 58 61 65 61 60 63 61 60 57 54 52 50 52 51 51 54 55 59 59 55 57 53 54 57 40 34 50 64 65 43 22 33 49 51 52 53 54 55 55 53 50 48 45 43 41
77 74 73 72 79 88 92 92 89 83 78 78 84 91 96 99 99 94 74 60 69 76 74 80 85 85 84 82 81 79 77 75 72 69 66 61 57 57 57 59 61 61 59 57 60 62 59 60 60 59 57 53 53 53 53 56 57 60 64 67 71 68 64 66 61 63 62 41 41 60 67 65 47 30 41 53 54 57 59 59 59 57 55 52 50 48 45 41
76 70 67 71 86 95 95 97 97 93 90 91 96 98 99 99 90 75 64 70 82 78 76 84 86 86 85 80 77 75 72 71 69 66 63 59 57 57 58 59 59 58 57 57 60 60 59 61 59 57 56 54 55 56 58 62 63 68 73 76 80 80 80 75 65 67 64 48 54 66 65 57 40 34 49 56 59 64 64 63 61 58 56 52 48 45 40 35
71 66 69 81 96 100 98 101 102 99 99 100 100 100 100 92 74 63 69 82 86 80 82 87 83 81 78 73 72 71 69 70 66 64 62 59 61 62 62 63 62 62 60 59 60 60 60 62 62 60 58 59 61 61 64 66 67 70 72 76 80 83 86 75 63 68 67 58 63 65 61 52 35 33 47 55 62 66 65 65 62 58 56 50 44 38 33 30
70 73 83 94 100 99 99 103 100 97 100 100 97 95 90 76 59 58 71 84 90 86 83 82 78 74 69 68 70 67 66 67 62 60 59 59 62 65 66 66 65 65 65 63 63 62 62 62 64 65 63 63 63 63 65 65 65 65 63 66 64 66 79 80 73 76 72 63 58 54 55 49 36 36 46 52 58 60 62 63 60 55 49 41 34 29 27 27
86 92 98 100 99 99 99 102 101 94 89 90 90 83 70 57 53 61 73 85 91 84 77 75 71 68 66 66 66 64 67 70 67 65 63 61 64 64 65 69 71 73 73 71 70 67 64 62 63 66 64 62 61 61 61 60 61 61 60 61 58 62 84 96 90 82 77 72 57 44 47 45 41 44 47 52 57 58 61 58 52 46 37 29 25 22 23 24
100 101 101 98 97 101 100 99 102 96 84 81 78 65 54 55 63 72 77 84 87 79 72 68 63 64 64 62 63 65 67 70 68 65 61 61 61 57 59 67 71 76 77 76 78 73 68 66 65 64 61 59 59 58 59 60 63 63 60 61 68 76 89 100 98 86 83 84 65 49 54 56 56 56 53 58 63 60 55 48 39 32 24 20 19 17 18 20
100 100 100 97 97 100 98 95 100 100 95 91 77 57 54 64 73 77 79 83 85 79 72 65 59 60 60 58 59 59 60 62 60 57 54 56 54 52 63 75 76 80 83 81 80 75 69 66 62 60 59 57 55 56 60 63 67 70 71 76 88 94 94 98 102 94 91 93 79 66 68 68 68 66 61 62 58 47 38 29 23 19 15 15 14 14 16 18
99 100 99 98 99 100 97 97 100 99 100 101 89 72 69 76 80 83 86 87 86 81 75 70 64 60 58 56 56 58 62 63 61 59 58 61 62 62 75 87 86 87 88 82 78 73 68 64 60 56 56 56 55 54 60 68 76 84 91 96 100 100 99 101 103 98 95 97 90 81 75 71 69 64 55 47 37 28 21 15 13 12 11 11 11 12 14 16
99 101 98 96 99 100 99 100 100 100 101 98 92 86 85 89 93 95 97 97 92 83 74 70 67 64 61 62 66 72 78 80 79 78 75 77 81 78 80 87 89 88 86 81 76 70 66 63 56 52 52 56 58 57 63 79 92 97 100 101 101 100 101 101 100 97 96 94 89 78 67 61 56 46 33 23 17 14 11 9 10 10 10 11 12 14 15 15
99 101 99 95 99 101 98 99 100 101 99 91 89 92 93 96 101 101 101 102 97 87 76 73 76 77 78 82 87 91 93 96 96 94 89 89 93 91 89 89 88 85 81 75 70 67 67 65 58 55 54 58 68 74 82 94 101 101 100 100 98 96 95 94 93 89 83 75 65 52 41 36 34 25 15 10 9 8 8 8 10 11 12 13 14 16 16 16
100 102 99 96 102 100 92 96 100 99 98 94 94 97 97 99 102 101 101 102 100 94 89 89 92 93 95 98 99 99 100 100 99 97 92 90 94 97 93 89 85 80 74 70 70 72 80 85 82 74 66 69 84 95 99 101 101 101 101 99 95 92 87 82 74 61 49 39 33 31 25 17 15 12 7 6 6 6 8 11 14 16 19 23 25 22 21 24
100 101 98 96 102 100 94 98 100 99 100 98 96 97 98 98 100 101 101 101 101 99 97 98 98 98 100 101 100 101 101 99 95 93 91 89 93 96 90 84 79 74 72 74 80 87 94 100 99 90 84 89 99 102 100 100 98 95 92 86 76 65 55 47 37 27 21 16 16 23 21 11 8 8 6 7 7 8 12 19 25 28 27 31 32 26 25 31
98 99 98 98 100 100 99 100 99 99 100 95 94 99 99 96 97 100 101 100 101 100 99 99 99 99 100 100 101 101 101 97 87 85 88 89 91 91 86 81 77 76 81 87 93 98 100 100 99 95 89 88 89 89 88 87 84 78 71 60 48 39 36 34 28 21 18 13 10 16 17 10 8 8 8 8 8 11 16 21 28 33 35 37 39 38 39 41
99 99 99 99 100 100 99 99 99 100 100 97 98 101 100 98 99 101 101 101 101 100 100 100 100 100 99 100 101 99 99 97 90 89 94 93 91 88 83 79 76 79 88 93 95 97 98 97 94 88 79 70 63 61 60 57 54 50 43 34 28 27 29 27 20 16 17 13 9 13 15 11 10 10 11 12 16 21 24 25 31 40 46 49 48 51 54 52
100 100 99 99 99 100 99 99 99 99 100 100 101 101 101 101 102 101 101 101 101 100 101 100 99 101 100 99 100 98 98 100 99 98 97 94 91 86 81 79 78 77 79 81 85 91 98 98 92 86 79 64 43 29 23 21 19 18 16 13 12 12 12 12 10 12 17 14 12 12 11 10 10 11 11 13 23 34 37 41 47 48 47 45 42 42 42 38
100 100 100 98 98 100 101 100 100 100 100 100 100 101 101 100 101 102 101 100 100 99 101 101 100 101 99 98 100 100 99 101 101 98 95 92 90 84 78 76 75 76 77 78 83 92 99 96 89 88 81 55 24 9 7 7 7 8 8 9 9 10 11 12 13 14 15 14 14 12 12 16 16 14 16 22 37 49 51 53 53 46 40 35 32 30 25 20
100 100 100 100 100 100 101 101 100 99 100 100 99 99 100 100 99 96 93 93 97 99 101 101 98 97 96 97 101 101 99 100 100 97 91 86 82 76 72 69 73 83 90 93 92 92 96 95 91 90 76 43 16 9 11 11 11 12 12 12 13 14 14 14 15 15 15 16 15 12 18 28 26 20 22 30 40 44 41 37 34 28 25 22 19 18 16 13
100 100 99 101 101 97 96 99 100 100 101 100 99 99 100 100 98 93 90 93 98 100 101 100 97 94 95 99 102 101 98 96 93 87 81 78 74 68 62 60 63 71 81 93 99 98 100 98 91 84 67 37 18 14 14 15 15 15 15 16 16 16 15 15 16 15 15 16 16 15 20 27 24 19 21 22 22 22 19 18 17 15 15 15 14 14 14 13
99 100 99 101 100 95 95 99 101 101 100 99 100 100 98 97 98 98 99 100 101 100 101 101 98 96 99 102 103 101 94 86 81 77 75 77 73 62 51 44 41 40 45 57 68 72 75 75 72 71 59 35 20 17 17 18 18 17 18 19 19 18 17 16 15 16 18 20 20 20 21 21 19 19 19 17 15 15 15 15 15 14 14 14 14 14 14 15
100 100 100 101 100 98 99 101 101 101 100 101 102 99 95 95 98 100 102 103 103 101 100 100 98 96 98 99 95 89 78 67 64 61 57 59 59 51 42 36 33 32 32 36 46 57 68 73 72 64 47 28 19 20 21 21 20 20 21 21 21 19 18 18 18 18 20 22 21 20 20 19 18 17 16 16 16 16 15 15 14 15 15 15 15 16 17 18
98 100 100 102 101 100 100 101 100 101 100 99 98 96 97 100 100 101 102 100 98 96 93 90 87 82 81 78 72 66 59 52 50 49 51 59 64 58 46 35 33 35 37 41 50 59 65 64 54 40 28 23 23 25 24 23 22 22 22 21 21 20 19 20 20 20 21 21 20 19 19 18 17 17 16 16 16 15 15 15 15 15 16 17 18 19 20 21
87 90 93 97 97 96 98 100 101 101 98 94 95 96 98 98 95 95 93 88 84 82 77 72 67 63 61 57 52 49 48 50 57 66 74 77 69 57 44 32 30 33 34 35 36 34 32 30 27 25 25 27 28 27 25 25 25 23 23 22 22 22 22 22 22 22 21 20 19 19 18 18 17 17 16 16 16 15 15 16 16 18 19 20 21 21 22 23
Wind_Speed
21 20 20 20 19 19 19 19 18 18 18 18 18 18 17 17 17 17 16 15 15 14 14 14 13 13 13 13 13 13 13 13 12 13 12 13 14 14 14 15 15 16 17 17 18 18 18 19 19 19 20 21 21 22 22 21 20 18 18 19 18 18 17 18 18 19 20 21 21 21 21 20 20 18 17 16 17 18 20 20 19 20 21 21 20 20 19 19
23 22 22 22 22 21 21 21 21 20 20 20 20 20 20 19 19 18 17 17 16 15 15 15 15 15 15 15 15 15 15 16 15 15 16 16 16 17 17 17 18 19 19 20 20 20 20 21 21 21 22 23 23 24 24 23 21 18 18 19 19 18 18 19 20 20 21 22 22 22 22 22 21 20 19 17 17 20 21 19 18 20 22 22 20 20 20 20
25 24 24 24 24 23 23 23 23 23 23 23 23 22 21 20 20 19 18 17 17 16 16 15 16 16 16 17 17 17 18 18 18 18 18 18 19 20 20 20 21 21 21 22 22 22 22 23 23 24 25 25 26 26 26 24 21 19 18 19 19 19 20 21 21 22 22 23 23 23 22 22 23 22 21 19 18 21 22 19 18 19 22 24 23 21 20 20
27 27 26 26 26 26 26 26 25 25 25 24 24 23 22 21 20 19 18 18 17 17 17 17 17 17 17 18 18 19 20 20 20 20 20 21 22 22 22 23 23 23 23 23 23 24 24 25 26 27 27 27 27 27 26 23 21 20 19 20 20 19 21 22 23 24 24 24 24 24 23 22 24 24 23 21 20 21 23 21 20 20 21 24 25 24 22 22
30 29 29 29 28 28 28 28 27 27 26 25 24 23 22 21 20 20 19 19 18 18 18 18 18 18 19 19 20 20 21 23 23 22 22 22 23 24 24 24 24 25 25 25 25 26 26 27 28 28 29 28 27 27 25 22 20 20 20 21 21 21 22 24 25 26 26 26 26 25 25 24 25 25 25 24 23 22 22 23 23 23 22 23 25 27 26 24
32 32 31 31 31 30 30 30 29 28 27 26 25 24 23 22 21 21 20 20 20 20 20 20 20 20 21 21 22 22 24 25 24 24 24 24 25 26 26 26 26 27 27 28 28 29 29 29 30 28 27 27 26 25 23 21 21 20 21 22 23 23 24 26 27 28 28 27 27 26 25 26 26 25 26 27 25 24 24 24 26 27 25 24 24 26 27 27
34 34 33 33 32 32 31 30 29 28 27 26 25 25 24 23 23 22 22 22 22 21 22 22 22 23 23 24 24 25 27 27 26 26 27 27 27 28 28 28 29 29 30 31 31 31 31 30 29 26 25 25 24 23 22 21 22 21 22 23 24 25 25 27 28 29 30 28 28 27 26 28 28 26 27 29 27 26 26 27 28 30 30 29 27 26 26 27
36 35 34 33 32 32 31 30 29 28 27 27 26 26 25 25 24 24 24 24 24 24 24 25 25 26 26 27 27 28 30 30 29 30 30 30 30 30 31 31 32 32 32 32 32 31 30 29 27 24 23 23 22 23 23 23 23 23 23 24 25 27 27 29 30 30 30 29 30 29 28 30 29 27 28 29 28 27 28 29 30 31 33 33 31 29 27 27
36 35 34 33 32 31 31 30 29 29 28 28 28 27 27 27 27 27 27 27 27 27 28 28 29 29 29 29 29 30 32 32 31 31 31 31 31 31 32 32 32 32 32 31 30 28 27 26 24 23 23 22 22 24 25 25 25 25 26 26 27 29 29 31 31 31 31 30 31 30 29 31 30 28 29 30 29 28 29 30 32 33 33 34 33 32 30 29
36 35 34 33 33 32 32 31 31 31 30 30 30 30 30 30 30 30 30 30 30 30 31 31 31 30 30 29 28 29 31 30 30 30 30 30 30 29 29 29 29 29 28 28 27 25 26 26 25 25 25 24 25 27 28 28 28 28 29 29 30 31 31 32 32 32 32 31 33 32 30 31 31 30 31 32 31 29 29 31 33 33 33 34 34 32 31 30
37 37 36 35 35 34 34 34 34 33 33 33 33 33 33 33 33 33 33 33 33 33 33 32 31 30 28 27 25 27 28 28 29 29 29 29 28 28 28 27 27 27 27 26 26 26 27 28 28 28 28 28 29 30 31 31 31 31 32 32 32 33 32 33 34 33 32 33 34 34 31 31 31 31 31 33 33 31 30 32 34 34 33 34 33 32 31 29
39 39 38 38 37 37 37 37 36 36 36 36 36 36 36 36 35 35 35 35 35 34 33 32 30 28 27 26 25 27 28 29 30 30 30 30 29 29 28 29 29 28 29 29 29 29 30 30 31 32 31 31 31 32 33 32 33 33 34 33 33 34 34 34 35 34 33 33 35 35 33 30 29 31 33 35 35 33 33 34 35 35 33 33 32 31 30 29
41 40 40 40 39 39 39 39 39 38 38 38 38 38 37 37 37 37 36 35 35 34 32 31 30 29 28 27 28 29 30 31 32 32 32 32 31 31 31 31 31 31 31 32 32 32 32 33 33 33 33 33 32 33 33 33 33 33 35 35 34 34 33 33 34 33 33 34 35 36 34 29 27 30 33 35 37 36 35 36 36 35 33 32 31 30 29 29
41 41 41 41 40 40 40 40 40 40 39 39 38 38 37 37 36 36 36 35 34 33 32 32 31 31 30 29 30 31 31 32 33 33 33 33 33 32 32 32 32 32 32 33 33 33 33 34 35 34 33 33 33 33 33 33 32 32 34 35 35 35 33 32 33 33 33 35 36 36 36 30 25 27 31 34 36 37 37 36 35 34 32 31 30 29 28 29
41 41 41 41 40 41 41 40 40 39 38 38 37 37 37 36 36 35 35 35 34 34 34 34 34 34 33 31 32 32 32 33 33 33 33 33 33 32 32 32 32 33 33 34 34 34 34 35 35 34 33 33 32 32 32 32 31 32 36 37 37 37 35 34 33 33 34 36 37 37 36 31 26 26 29 32 35 36 37 35 34 33 32 30 29 28 28 30
41 41 40 40 40 40 40 40 39 38 38 38 37 37 37 37 36 36 36 36 36 36 36 36 36 36 35 33 33 32 32 33 33 33 33 33 33 33 34 34 34 34 34 34 34 34 35 35 35 34 33 32 31 32 33 33 32 34 38 39 38 38 37 36 34 34 36 38 38 38 36 32 29 29 30 32 34 35 36 35 35 34 33 32 30 29 29 30
43 42 42 41 41 41 41 40 40 39 39 39 39 39 38 38 38 38 38 38 38 38 38 38 37 37 36 33 33 33 33 33 33 34 34 34 34 34 35 35 35 35 35 35 35 35 35 36 35 34 33 31 31 32 35 35 34 36 39 40 39 39 39 37 34 35 37 39 39 39 37 34 33 32 32 34 36 35 35 34 35 36 35 34 32 30 29 29
44 43 43 43 43 43 42 42 41 40 40 40 40 40 40 40 40 39 39 39 39 39 39 38 37 37 36 34 34 34 34 34 34 34 34 34 35 35 35 35 35 35 35 35 35 36 36 36 35 35 33 31 33 35 37 37 37 39 40 40 41 40 40 37 35 36 37 39 39 38 37 35 34 33 33 35 35 34 33 32 33 34 35 34 33 31 29 28
44 44 44 44 44 43 43 42 41 41 41 41 41 41 41 40 40 40 39 39 39 38 38 37 37 37 36 35 35 36 35 34 34 34 34 34 35 36 36 36 36 36 35 35 36 37 37 37 37 35 32 33 36 38 38 39 40 41 41 42 42 41 39 36 36 37 38 39 38 37 37 37 36 34 34 35 34 33 31 30 30 31 32 33 33 32 30 30
42 42 42 43 43 42 42 41 41 40 40 40 40 40 40 40 40 39 39 38 38 38 39 39 38 38 37 37 37 36 35 34 33 33 34 35 35 36 37 37 36 36 35 36 38 38 37 39 38 34 33 36 38 39 39 40 41 42 42 42 42 41 38 36 36 37 37 39 37 36 37 37 36 34 34 35 33 32 32 31 30 29 29 29 30 31 31 31
40 41 41 42 41 41 40 40 40 40 40 40 40 40 40 40 40 40 40 39 39 40 40 40 40 38 36 38 38 37 35 34 33 33 34 35 37 37 38 38 37 36 36 38 40 39 40 41 37 33 35 38 39 39 40 40 41 42 42 42 41 39 37 36 36 36 37 38 36 35 37 36 35 34 34 34 34 33 33 33 31 29 27 27 28 29 30 31
42 42 42 42 42 41 41 41 41 41 41 41 41 42 42 42 42 42 42 41 39 40 41 40 40 39 36 38 39 38 37 35 34 34 35 37 38 38 39 39 37 37 38 39 39 40 43 42 37 36 39 40 40 40 40 40 40 40 40 40 38 36 36 36 36 36 36 36 36 36 36 36 34 33 34 35 34 33 34 35 33 29 27 27 27 28 29 30
43 43 44 43 43 42 42 42 42 42 42 43 42 42 43 43 43 42 43 42 39 39 41 40 40 40 39 40 40 39 39 37 36 36 36 37 38 38 39 38 37 38 38 39 39 42 44 40 37 39 40 40 40 40 39 38 37 38 38 37 35 33 35 36 35 36 36 36 36 37 38 38 35 34 36 36 35 34 36 36 34 31 30 29 28 29 29 30
44 44 44 43 43 43 42 42 42 42 42 43 43 42 42 43 43 43 43 44 42 39 39 41 42 42 41 42 41 40 40 39 39 38 37 38 38 38 38 38 39 40 39 39 41 44 43 38 37 39 39 39 40 38 36 36 37 37 35 34 33 33 35 36 36 37 38 38 39 40 42 41 36 36 37 37 36 36 37 37 34 33 32 31 31 31 31 32
45 46 45 45 45 44 44 44 44 44 43 43 44 43 44 44 44 45 45 47 48 42 39 42 44 44 43 43 42 41 41 41 40 39 39 39 39 40 39 40 41 41 39 40 43 44 40 36 37 38 38 38 39 37 34 35 37 35 32 33 35 34 35 36 38 40 41 42 42 43 45 43 39 38 38 36 37 38 37 36 35 35 34 33 33 33 34 34
47 47 47 47 47 46 46 46 46 46 46 46 46 46 46 46 46 47 47 51 53 48 43 44 46 46 45 43 43 43 43 42 41 41 40 40 40 41 41 40 40 40 40 40 42 41 37 34 36 37 36 37 37 34 33 35 36 33 32 35 36 36 37 38 40 41 43 43 43 44 45 42 41 41 39 39 41 41 38 36 36 36 35 34 34 35 36 38
48 48 48 48 49 48 48 49 48 48 48 48 48 48 48 48 48 49 50 54 57 53 50 49 48 47 46 45 44 44 44 43 42 41 41 40 41 40 41 40 39 39 39 39 39 37 35 34 34 34 34 34 33 33 35 37 37 35 35 36 37 37 38 39 40 41 42 42 44 45 43 41 42 42 41 43 44 43 40 39 37 37 36 36 37 39 41 43
49 49 49 50 51 51 51 51 51 51 51 50 50 50 50 50 50 51 53 57 60 57 55 52 50 48 45 44 44 43 43 43 42 42 41 41 41 40 40 40 38 37 37 37 36 34 35 34 33 32 32 32 33 35 37 38 38 38 37 37 37 38 38 38 39 40 41 41 44 43 40 41 43 42 44 46 45 44 43 42 40 40 39 40 42 44 46 47
50 50 51 52 53 53 53 53 53 53 53 52 51 51 51 51 51 53 54 58 61 59 55 51 49 48 45 43 43 42 41 41 41 41 40 40 40 39 39 38 37 36 36 36 35 34 36 35 34 33 33 33 35 36 37 38 38 38 37 38 38 38 38 39 40 40 41 43 44 41 39 43 45 44 46 48 46 46 46 45 45 45 45 45 46 47 48 50
52 51 52 54 54 55 56 56 56 56 55 53 53 53 52 52 51 52 55 58 58 56 53 49 47 45 44 42 41 40 39 39 39 39 39 39 39 38 38 37 37 36 36 37 36 36 38 38 37 36 36 36 37 37 37 37 37 37 37 37 37 38 39 40 42 42 44 46 44 41 42 46 48 47 46 47 48 48 48 48 48 48 49 49 49 50 51 52
53 53 54 55 56 57 57 56 56 56 55 55 54 54 52 51 51 52 56 55 51 50 48 46 43 42 41 41 39 38 38 38 38 38 37 37 37 36 36 36 36 36 37 38 37 38 40 41 40 39 40 40 39 38 38 37 37 37 37 37 38 40 42 43 45 45 47 49 46 44 46 48 51 50 48 49 50 50 50 49 49 50 51 51 52 53 54 55
55 55 56 56 57 57 54 53 53 54 54 54 53 52 50 49 51 52 52 49 46 46 44 42 42 40 39 39 37 37 36 36 37 37 36 36 35 35 35 35 35 36 37 37 38 40 41 42 42 42 42 41 41 40 39 38 38 39 39 39 41 44 45 47 48 49 50 51 48 48 50 52 53 51 49 50 51 51 51 50 50 51 52 54 56 56 56 57
57 57 58 57 57 56 52 50 52 53 52 51 50 49 48 49 51 50 46 43 42 41 40 40 41 40 39 38 37 37 36 36 37 37 37 37 37 36 36 36 36 37 38 38 39 41 41 42 42 43 43 43 43 42 41 42 43 43 43 44 46 47 49 51 51 51 52 51 49 51 54 56 54 51 51 51 51 52 52 51 52 53 55 57 59 59 58 57
58 59 59 57 54 51 46 46 50 51 50 50 49 48 48 50 51 47 42 39 37 38 39 40 40 40 40 39 38 38 38 38 38 38 39 39 39 38 38 39 39 39 40 40 41 42 43 43 43 43 44 44 44 44 44 45 46 47 47 48 49 50 50 52 52 52 53 52 51 53 56 56 54 51 51 52 53 53 53 53 55 57 59 60 59 59 58 57
55 55 53 50 47 43 40 42 48 51 50 49 50 50 50 50 49 44 39 37 36 38 39 40 40 40 40 39 40 40 39 39 39 40 41 41 41 41 42 42 42 42 42 43 44 45 46 46 46 45 45 46 46 47 47 48 48 50 50 50 51 50 49 51 52 52 53 53 53 54 55 55 53 51 51 52 53 54 55 57 59 60 60 60 59 59 58 58
49 49 47 45 43 40 40 43 47 52 53 52 53 53 51 49 47 44 41 39 39 39 40 41 42 42 42 42 42 42 41 41 42 42 42 43 43 44 45 45 46 46 47 47 47 48 49 49 48 48 48 48 49 49 49 49 50 51 51 50 50 49 49 51 53 52 53 55 55 52 53 53 52 52 51 53 55 57 58 60 60 60 60 59 59 59 58 58
50 48 48 47 46 45 46 48 50 52 54 56 56 53 48 47 46 44 43 40 39 39 41 43 44 44 45 45 45 44 44 44 44 44 44 45 46 47 47 48 49 49 49 49 50 51 51 51 51 51 50 50 50 49 50 49 48 48 48 47 48 49 50 51 53 53 54 57 56 52 52 53 55 55 55 56 58 59 59 59 58 58 58 58 58 58 58 59
51 49 49 49 49 52 52 52 53 54 54 56 55 50 46 46 44 42 41 39 39 41 43 44 45 45 46 47 47 46 45 46 46 47 47 48 49 49 49 49 49 49 50 50 50 51 52 52 53 53 53 52 51 51 50 49 47 46 47 47 48 50 51 51 53 55 56 58 59 57 56 56 57 59 60 60 60 59 58 57 56 56 57 57 57 58 58 59
52 50 49 48 49 52 53 55 56 54 53 53 50 47 46 44 43 42 42 42 44 45 46 47 48 49 49 48 47 46 46 47 48 49 50 51 52 52 51 50 50 50 50 50 51 51 52 52 54 55 54 53 53 52 50 48 48 48 49 50 51 52 53 54 56 58 59 61 62 61 61 60 60 62 64 64 62 61 59 57 56 56 56 56 57 57 58 59
51 51 49 47 47 49 50 55 56 53 51 50 46 45 45 43 42 43 44 46 47 48 50 51 52 52 50 48 47 48 49 50 51 52 53 54 55 55 54 53 53 53 53 52 52 51 51 52 53 54 54 53 52 50 48 48 50 51 52 53 54 55 56 58 59 59 60 61 62 63 65 66 65 66 67 65 63 62 60 59 57 56 56 56 57 58 59 60
49 50 50 48 48 50 51 54 56 54 53 50 47 47 48 46 46 45 46 47 48 50 52 53 53 52 50 49 50 51 53 54 55 57 58 59 59 58 57 57 56 56 54 52 51 49 48 48 49 50 51 51 49 49 49 51 54 55 56 57 57 58 58 59 61 61 60 61 62 62 65 68 69 67 66 64 62 61 59 58 57 57 57 57 58 58 59 60
50 51 52 50 50 52 53 55 57 58 57 55 53 54 53 53 52 52 52 52 53 53 53 53 53 52 52 52 53 55 56 58 59 61 62 62 59 57 57 57 56 55 52 49 49 47 47 47 49 50 50 49 51 55 57 58 60 61 62 61 60 59 59 59 61 61 60 61 62 62 65 68 68 65 64 64 62 60 58 57 56 57 57 58 58 59 60 61
53 53 54 53 53 54 56 58 59 59 59 59 59 59 58 58 58 59 59 58 58 57 56 56 55 55 56 56 57 58 59 61 63 63 62 60 57 55 55 54 52 51 49 48 48 48 49 51 53 54 54 54 57 61 63 64 65 65 64 63 61 60 59 59 60 62 62 64 64 62 65 69 68 64 63 62 61 59 57 56 56 56 56 57 58 59 60 61
54 54 54 54 54 53 54 56 56 55 55 56 56 57 57 58 58 59 59 58 58 58 59 59 59 59 59 59 60 62 63 63 63 61 59 57 55 53 52 50 49 48 48 49 51 52 54 56 57 58 58 58 59 62 65 65 65 65 65 64 63 62 62 63 65 65 66 68 66 64 67 69 66 64 62 61 60 58 57 57 56 56 56 56 58 59 60 62
53 53 52 50 49 50 50 51 51 51 51 52 54 56 57 57 57 57 58 58 58 59 60 60 59 58 59 61 63 64 63 61 60 59 58 56 55 53 52 51 51 50 51 52 54 55 56 58 58 58 60 61 60 61 63 64 64 64 65 65 64 64 65 66 67 67 67 68 67 67 70 68 64 63 63 62 59 57 56 56 56 57 58 60 61 63 64 65
54 55 53 48 48 52 53 53 55 56 54 53 53 55 56 57 57 57 59 59 60 60 59 58 58 59 61 63 63 62 60 59 59 59 59 58 58 57 56 55 54 54 53 54 55 57 58 59 59 60 62 63 62 62 63 64 64 65 65 64 64 65 66 66 68 68 67 66 68 69 68 66 63 63 63 60 57 55 56 56 57 60 62 63 64 66 67 68
57 57 55 51 51 56 59 59 60 59 56 53 51 50 52 54 56 58 60 61 60 59 57 58 60 61 62 61 60 60 60 60 61 61 61 61 61 60 59 58 56 55 54 54 56 58 60 61 62 63 65 64 64 64 64 64 64 65 65 64 64 65 67 68 68 68 66 67 69 68 65 63 62 60 59 57 55 55 57 58 60 62 63 64 65 66 67 68
65 63 61 58 57 58 60 60 60 59 57 54 52 51 51 53 56 58 60 60 59 58 59 61 62 62 63 63 63 63 63 64 65 65 63 61 60 58 58 57 56 55 55 57 59 61 63 65 66 67 67 65 65 65 65 65 65 65 65 64 63 64 67 69 69 68 68 69 69 66 62 62 61 59 57 57 57 58 60 61 62 62 63 64 65 65 66 67
71 71 70 69 66 62 61 62 62 63 62 60 59 58 56 57 58 59 60 61 62 62 63 64 65 64 64 64 62 62 64 65 64 62 59 58 58 58 57 57 57 57 58 61 63 65 68 69 68 68 68 66 65 65 65 65 66 66 65 64 63 65 67 68 68 67 67 67 66 63 62 63 63 60 58 58 59 61 62 61 61 61 62 62 63 64 65 66
73 73 74 75 75 71 69 69 70 71 70 69 69 67 65 64 64 64 66 68 68 68 69 69 67 65 63 62 61 63 64 63 61 59 58 58 60 60 59 59 59 60 61 63 65 67 68 69 69 68 68 67 66 65 65 66 67 67 65 64 64 65 66 65 66 65 64 64 64 62 64 65 61 58 58 59 60 61 61 61 61 61 62 63 63 65 66 68
74 74 74 75 76 77 77 77 78 78 77 77 77 75 73 73 70 69 70 72 72 72 72 71 67 65 64 65 66 65 63 61 60 59 58 59 60 60 61 63 63 63 64 64 66 67 67 68 68 67 67 67 65 64 65 66 67 68 66 64 63 64 64 64 64 63 63 64 65 65 66 64 59 57 59 60 60 60 60 61 63 63 64 64 65 67 69 70
75 74 74 75 75 76 77 78 78 79 79 79 78 76 74 72 70 68 69 71 72 71 70 68 65 65 65 66 66 64 61 59 60 59 58 61 63 63 64 66 65 65 66 66 67 67 67 67 66 65 66 66 64 64 64 65 69 70 67 62 60 60 61 62 63 62 62 64 65 65 65 63 61 61 62 61 60 61 63 64 64 65 65 66 67 69 71 72
Wind_Direction
239 241 243 245 247 250 252 254 256 258 259 261 263 264 266 267 269 270 270 269 265 262 259 256 256 256 257 259 260 261 263 265 267 270 271 274 277 279 281 283 285 287 289 290 291 292 293 293 294 295 296 298 299 299 298 298 296 293 290 289 289 290 290 292 293 295 297 300 303 305 306 308 308 310 312 315 320 316 309 310 314 310 302 296 293 292 291 290
241 243 245 247 249 251 253 254 256 258 260 261 263 264 266 267 267 268 267 266 264 261 259 259 258 259 260 262 263 265 266 268 269 272 274 275 278 280 281 283 285 286 287 288 290 291 291 292 292 293 293 295 296 295 295 295 293 288 284 285 286 286 288 291 293 296 298 299 302 304 307 309 309 309 309 313 316 310 309 317 318 309 303 299 296 293 288 286
243 244 246 248 250 252 254 256 257 259 261 262 263 264 265 265 265 264 263 262 261 260 259 259 259 261 262 264 266 268 269 270 270 272 275 277 278 279 280 281 283 284 285 286 287 288 289 290 291 292 293 293 293 293 293 293 290 285 282 281 282 285 288 291 294 296 298 300 301 303 306 307 306 305 306 309 309 304 307 315 314 308 303 302 301 297 291 286
244 245 247 249 251 254 256 257 259 261 262 263 264 264 264 263 262 260 259 258 258 259 259 259 261 262 264 266 268 269 271 271 272 273 274 275 277 277 279 280 281 282 283 284 285 286 288 290 291 292 293 293 292 291 291 290 287 284 282 281 282 285 289 292 295 297 298 299 300 302 304 304 303 303 304 305 302 301 305 308 306 304 301 301 302 299 296 292
245 246 248 251 253 256 258 259 261 262 262 263 263 263 262 261 260 259 258 257 257 258 259 261 262 263 265 267 268 270 270 271 272 273 273 274 276 277 278 279 280 281 282 282 283 285 288 289 291 292 292 291 290 289 288 286 283 281 281 281 283 285 289 293 296 297 298 299 301 303 304 302 300 301 302 300 298 298 301 302 301 298 297 297 297 297 297 296
247 249 251 253 256 258 259 260 261 261 262 261 261 261 260 260 259 259 259 259 259 259 261 262 264 266 267 268 270 271 271 271 272 273 274 275 275 277 278 279 280 281 282 283 284 286 287 288 289 289 289 287 287 286 284 281 278 275 276 278 281 284 288 293 296 297 297 298 299 300 300 297 295 298 298 296 297 299 299 298 297 296 295 293 292 295 297 299
249 251 253 255 256 257 258 259 259 259 259 258 258 258 258 258 258 259 259 260 261 262 264 265 267 268 269 270 271 272 273 272 273 274 275 275 276 277 278 279 281 282 282 284 285 286 287 287 286 286 284 283 284 284 282 279 276 273 272 274 277 281 286 290 292 293 295 296 296 297 297 295 295 297 295 294 297 299 298 295 294 294 294 293 293 294 295 297
250 251 252 253 254 255 255 256 256 256 256 256 256 257 257 257 258 259 259 260 262 263 264 266 268 269 270 271 272 273 273 273 274 274 274 275 275 276 277 278 280 281 282 283 284 285 286 285 284 283 281 281 283 282 282 280 278 277 274 275 277 280 284 286 287 290 293 295 294 296 296 293 294 294 293 294 296 297 295 293 292 292 292 294 295 295 296 297
249 250 250 251 251 252 253 253 254 254 255 255 256 257 258 259 260 260 261 262 263 264 265 266 267 269 270 270 272 273 273 274 275 274 274 275 275 276 277 278 279 280 281 282 283 284 283 282 282 282 281 282 283 282 281 281 281 280 279 279 279 281 283 285 287 290 292 293 293 294 294 292 293 294 294 294 295 295 293 292 290 289 290 293 295 296 298 298
248 249 249 250 250 251 252 253 254 255 256 257 258 259 260 261 262 263 264 265 266 267 267 268 269 270 271 271 273 274 274 275 276 276 277 277 277 278 279 279 279 280 280 281 281 281 281 281 282 282 282 283 283 282 282 282 283 282 282 282 282 283 284 286 288 290 292 293 293 293 293 293 295 297 297 296 295 294 293 291 289 288 290 292 294 296 298 297
248 249 249 250 251 252 253 253 255 256 257 258 260 261 262 263 264 265 266 267 268 268 269 270 270 270 271 271 272 273 275 276 277 278 279 279 279 280 280 281 280 280 280 280 279 279 279 281 282 283 284 284 284 283 284 285 285 285 285 285 285 286 286 287 289 290 293 293 293 293 292 293 297 298 298 296 296 295 293 291 289 290 291 293 294 296 295 295
248 249 250 251 252 253 254 255 256 257 258 259 260 262 263 264 265 266 267 268 268 269 269 269 269 268 268 270 272 272 274 276 277 277 278 278 279 279 280 280 280 280 280 279 279 279 280 281 282 282 284 284 284 285 286 287 287 287 287 287 287 287 287 288 289 291 293 293 291 291 291 293 298 299 298 296 296 295 293 291 291 293 294 295 295 295 294 293
249 250 251 251 252 253 254 255 256 257 258 260 261 262 263 265 266 266 267 268 268 268 268 267 267 266 267 270 271 272 273 274 274 275 276 277 277 278 278 278 279 280 280 280 280 280 281 281 281 282 283 283 284 285 286 286 287 288 288 288 287 286 287 288 290 292 293 291 290 290 291 294 297 297 296 295 294 294 292 292 294 296 297 298 296 294 293 290
249 250 251 252 253 254 254 255 256 258 259 260 261 262 263 264 265 266 266 267 267 267 266 266 266 267 268 270 271 272 273 273 273 274 275 276 277 277 277 278 279 279 279 280 281 281 282 282 282 283 283 284 286 286 286 287 288 289 289 288 288 289 290 291 292 294 294 291 290 290 290 293 295 293 291 291 292 292 292 294 296 297 298 297 294 292 288 284
250 251 252 253 253 254 255 256 257 258 259 260 261 262 263 263 264 264 265 265 265 266 266 267 268 269 270 271 271 272 273 273 273 273 274 275 276 276 277 277 278 278 279 280 281 282 282 282 283 284 285 286 287 288 288 288 290 292 290 289 291 293 295 295 296 296 294 292 290 290 291 294 294 288 286 286 287 289 291 294 297 298 297 295 292 289 285 282
250 251 252 253 254 254 255 256 257 258 259 260 261 262 262 263 263 264 264 265 265 266 267 268 269 270 271 271 271 271 271 271 272 273 274 275 276 276 277 277 277 278 278 280 281 282 282 282 283 285 286 287 288 288 287 288 291 291 289 291 294 296 297 297 298 297 294 291 290 290 291 295 294 289 288 287 287 289 292 296 298 299 297 295 294 291 287 285
249 250 252 253 254 255 255 256 257 258 259 260 261 261 262 262 263 263 264 265 266 267 268 269 270 270 270 270 269 269 269 269 271 273 274 275 276 277 277 277 278 278 279 280 281 281 281 282 283 284 285 288 288 286 285 287 291 290 290 292 294 295 295 296 298 296 292 290 289 290 292 293 290 289 290 289 289 290 293 296 297 298 298 297 296 294 291 289
249 250 251 253 254 255 256 257 258 259 260 260 261 261 262 262 263 264 264 265 266 267 268 269 269 270 270 269 269 269 269 270 270 272 274 275 276 277 277 277 278 279 280 280 281 281 281 282 282 283 286 288 286 283 283 287 289 289 291 291 291 292 293 296 297 293 290 289 290 292 295 294 292 292 292 290 290 292 294 294 293 294 295 296 297 297 295 292
250 250 251 252 253 254 256 257 258 259 259 260 261 261 262 262 263 263 264 265 266 267 267 267 268 269 270 270 270 269 269 270 271 272 274 274 275 276 276 277 278 279 280 281 280 279 280 281 280 282 286 285 281 280 282 285 287 289 291 291 291 292 293 295 294 291 291 291 293 297 297 296 296 296 294 292 293 295 295 293 290 289 289 291 294 296 295 292
250 251 252 252 253 254 255 256 257 257 258 259 260 260 261 262 262 262 263 264 265 266 267 268 268 269 271 271 269 269 269 269 270 271 272 274 274 275 276 277 277 278 279 279 278 278 279 278 279 283 284 280 278 280 282 284 286 288 290 290 291 292 294 294 291 290 291 292 295 297 295 295 296 295 294 294 296 297 296 294 291 290 289 289 289 290 290 289
251 251 252 252 252 253 254 255 255 256 257 257 258 259 260 261 261 262 262 263 264 265 266 267 268 268 269 270 269 269 269 268 269 271 272 274 274 275 275 275 275 276 277 276 277 279 279 278 280 283 280 278 279 280 281 283 284 286 288 288 290 293 294 292 290 290 290 292 294 293 292 292 293 293 294 297 298 298 297 296 294 293 293 291 288 286 284 284
250 251 252 253 254 255 256 256 256 257 258 258 259 260 260 261 262 263 263 262 263 264 265 265 267 267 267 267 269 270 270 270 271 272 273 274 274 274 274 273 274 275 275 276 279 280 279 279 282 280 277 278 279 279 280 281 283 284 285 286 289 291 290 289 289 289 290 291 292 291 291 292 293 295 298 299 299 298 296 295 294 295 294 292 288 285 283 283
250 251 252 254 255 256 257 258 259 259 260 260 261 261 262 263 263 263 263 262 260 262 265 266 266 267 267 267 268 269 271 273 273 274 274 273 273 273 273 274 274 274 276 279 280 279 278 280 280 278 277 277 278 278 279 280 281 281 282 285 288 287 286 288 289 289 290 291 291 291 291 293 296 298 299 299 297 295 294 293 294 295 293 291 288 287 285 285
250 251 252 253 254 255 256 257 258 259 260 261 262 262 263 264 264 264 264 264 261 258 262 266 266 267 267 268 270 271 272 273 274 275 274 273 272 272 273 274 274 275 278 279 277 276 278 280 279 277 276 276 276 276 278 280 280 280 282 284 285 284 286 289 289 289 291 291 292 292 291 293 297 297 296 296 294 291 290 291 293 293 291 290 290 290 289 288
249 251 252 253 254 255 256 256 257 258 259 260 261 262 263 264 265 265 266 266 264 260 259 262 265 267 268 270 272 274 274 274 274 274 274 273 273 273 273 274 275 276 277 277 276 278 279 279 277 275 275 275 276 277 278 278 278 279 282 283 283 285 287 289 289 289 290 290 290 290 290 292 296 296 295 293 290 287 287 290 291 289 289 289 290 290 290 289
249 251 253 254 255 256 256 257 258 258 259 260 261 262 264 265 266 266 267 267 267 265 261 260 262 266 268 271 273 275 276 276 275 275 274 273 273 274 275 274 275 277 277 277 278 280 280 276 273 273 274 275 277 279 277 276 277 280 281 281 283 286 286 286 287 287 287 287 287 287 288 292 294 294 293 290 288 287 288 289 288 287 288 288 288 288 289 291
250 252 254 255 257 257 257 258 258 258 259 260 261 263 265 266 267 268 268 268 268 267 266 263 263 265 268 271 273 275 275 275 276 275 274 274 274 275 275 276 277 277 278 278 278 280 278 273 271 272 272 274 275 275 274 276 280 281 281 282 284 285 284 284 284 283 283 284 284 285 289 292 291 291 290 288 288 290 290 288 287 286 287 286 287 289 291 292
252 254 256 258 259 259 259 259 259 259 259 260 262 264 265 266 268 268 269 269 269 268 268 268 268 269 269 271 272 272 272 273 273 273 274 274 274 275 275 277 278 277 278 278 278 278 276 274 271 270 271 272 273 273 276 279 282 283 283 284 284 282 282 282 281 281 281 282 283 286 290 290 289 290 289 288 290 290 288 286 286 286 285 287 289 292 293 295
254 256 259 260 261 261 261 260 260 259 259 261 262 264 265 266 267 268 268 268 268 269 270 272 272 273 272 271 270 269 269 270 270 271 272 272 273 274 275 276 277 277 278 279 278 276 276 275 273 272 273 274 274 276 279 281 282 283 283 282 281 280 280 280 280 281 280 281 285 289 288 285 286 288 288 288 290 288 287 287 288 289 291 293 295 296 297 298
255 257 260 261 262 263 263 262 260 259 260 261 263 264 265 266 267 267 266 266 267 271 273 273 273 273 274 273 271 270 269 269 269 270 271 272 273 275 276 276 277 277 278 279 278 276 277 276 276 277 277 277 279 281 281 281 281 281 280 279 279 279 280 279 280 281 280 283 289 289 284 281 284 287 287 286 285 285 286 288 290 294 297 299 300 300 299 299
256 258 260 262 263 264 263 262 260 259 259 260 262 263 264 265 264 263 263 266 269 271 274 274 273 272 272 273 273 273 272 271 271 271 271 273 275 276 277 277 277 277 278 278 278 277 277 277 278 278 279 280 282 282 281 281 281 280 278 278 278 279 279 279 280 281 281 286 289 284 280 279 282 285 284 283 283 284 285 287 290 294 296 298 299 298 297 296
256 259 261 262 263 263 262 261 260 259 258 259 260 261 261 261 260 260 263 268 270 271 273 274 273 272 271 271 272 272 272 272 272 273 274 275 277 277 277 277 277 277 277 278 277 276 277 277 278 278 279 281 282 281 282 281 280 278 278 279 279 279 279 279 280 281 281 285 285 281 280 279 280 283 282 281 282 283 283 285 288 291 293 295 295 294 292 291
257 260 261 262 263 262 261 262 262 260 258 258 257 258 257 257 259 262 263 265 268 271 272 270 269 270 270 270 269 268 269 271 273 275 276 277 278 278 278 278 278 277 277 277 276 277 277 277 277 278 279 280 280 281 281 279 278 277 278 278 278 278 278 279 282 281 281 282 281 279 278 277 280 282 281 280 280 280 282 284 287 289 290 291 290 289 288 287
258 259 260 260 261 260 259 260 261 260 258 256 256 255 254 257 261 263 262 261 263 265 266 266 267 267 267 266 266 268 271 273 275 277 278 278 279 280 280 280 280 279 278 278 278 279 278 278 278 278 279 280 281 280 279 278 277 277 277 277 277 278 278 279 280 279 279 279 278 277 277 277 280 281 280 280 279 280 282 285 287 288 288 287 287 286 286 285
255 256 256 255 255 255 255 257 260 261 257 254 254 254 256 260 262 262 260 258 256 257 259 262 263 264 264 265 267 270 274 277 279 280 280 280 281 281 281 281 280 279 279 279 280 280 280 280 280 280 281 281 281 279 278 277 277 276 277 277 278 279 278 276 276 276 278 277 276 276 276 278 280 279 279 279 279 281 284 286 287 287 286 286 285 284 283 282
250 250 250 249 249 249 250 252 255 258 258 257 256 257 260 263 263 261 258 256 255 257 258 259 260 263 265 267 270 273 276 278 279 279 280 281 280 281 280 279 279 278 278 279 279 279 280 280 281 281 281 281 280 279 277 276 275 275 277 277 278 277 274 273 274 276 276 274 274 275 275 276 277 277 277 277 279 283 284 285 285 284 284 284 283 282 281 280
248 248 248 249 249 247 246 247 245 247 251 255 258 262 264 264 263 260 257 258 262 264 264 263 264 265 268 270 272 275 277 278 278 278 279 279 278 279 277 276 276 276 277 278 279 279 280 281 282 283 282 282 281 281 278 276 276 276 277 277 275 274 273 273 274 275 274 272 273 273 272 273 275 276 278 280 281 284 284 284 283 282 281 280 279 279 278 277
244 246 247 248 249 247 246 246 243 242 243 247 254 261 262 260 260 258 256 261 267 267 266 267 267 268 270 272 274 276 277 277 277 277 277 277 276 276 275 274 275 276 277 278 280 281 282 283 284 285 286 286 286 284 281 280 279 278 276 273 271 271 272 273 273 273 273 272 273 274 274 275 277 281 284 284 284 284 284 282 280 279 278 277 276 276 275 275
238 240 243 245 245 246 246 242 240 242 243 243 249 255 257 257 257 256 257 262 266 265 265 267 268 269 271 272 273 274 275 276 276 276 276 276 275 275 275 275 276 277 277 279 281 283 284 284 285 286 288 287 285 284 283 282 279 275 273 271 271 271 272 272 272 273 274 275 277 279 280 280 281 285 287 286 285 286 284 282 280 278 277 275 274 273 272 272
236 236 237 238 242 244 243 240 238 240 244 245 247 250 251 251 252 253 257 261 262 264 266 267 267 268 268 268 268 269 271 272 273 273 274 274 274 274 275 275 275 276 278 280 283 285 285 285 286 287 287 285 284 283 281 277 273 271 271 272 273 274 275 274 274 276 278 279 281 283 284 285 286 287 286 286 287 286 285 283 282 279 276 274 272 271 271 271
234 235 234 235 240 241 240 240 241 243 245 246 246 247 249 249 250 253 257 259 260 263 265 265 265 265 264 264 265 268 269 270 270 271 271 271 272 273 273 274 275 278 281 284 285 286 285 283 283 284 285 285 282 277 274 271 270 272 273 274 277 278 279 278 279 281 283 283 283 283 283 286 289 288 287 287 286 285 283 283 281 278 275 273 272 271 271 271
232 234 235 236 239 241 242 244 247 248 249 248 248 249 251 252 253 256 258 259 259 260 260 260 261 262 262 264 266 267 269 269 270 270 271 272 272 274 276 277 279 281 284 285 284 283 280 277 276 278 279 278 274 272 271 271 272 275 277 280 282 282 282 282 282 284 284 282 282 281 280 285 288 287 287 287 286 283 282 281 278 275 274 273 272 271 271 270
232 235 236 237 239 242 244 246 246 247 249 249 250 252 253 254 256 258 260 260 259 258 258 258 260 261 263 264 265 267 268 269 270 271 272 273 274 276 278 280 282 283 283 282 279 276 275 273 273 275 274 271 271 273 275 276 277 279 282 284 284 283 284 283 283 285 283 281 282 279 279 285 288 286 286 286 284 282 280 278 275 273 272 271 270 270 269 268
233 235 236 236 238 239 242 243 243 244 246 248 249 251 252 254 255 257 258 259 258 257 258 259 261 262 263 263 265 267 269 269 270 271 272 273 274 275 278 280 281 280 277 275 273 272 272 272 272 273 272 271 272 274 276 279 280 281 282 282 282 283 284 284 284 284 282 282 282 280 281 286 287 286 285 283 280 279 278 276 274 273 271 270 269 269 268 269
233 234 232 233 236 238 240 242 243 243 245 246 247 249 250 251 252 253 255 256 256 257 258 259 260 261 262 263 265 267 268 269 269 270 270 271 273 275 277 279 279 277 275 273 271 270 269 269 270 272 273 274 275 276 277 278 279 279 279 281 282 282 282 283 283 281 279 281 281 281 284 286 284 284 283 280 279 278 277 275 273 272 271 271 271 271 271 272
233 233 231 231 233 235 234 234 235 236 238 240 242 244 246 248 249 251 253 254 255 257 258 258 259 261 263 265 266 267 268 269 270 270 270 272 274 276 277 278 279 278 276 274 271 269 268 268 269 271 275 277 278 278 276 276 276 277 277 278 280 281 281 281 279 278 278 279 280 282 283 282 280 280 280 279 279 277 276 275 273 273 273 273 274 274 275 276
237 236 236 235 234 231 229 229 231 233 235 238 240 241 243 245 247 249 251 253 255 256 257 258 259 261 262 263 265 267 269 270 272 273 273 274 276 277 278 278 277 276 274 272 270 268 268 268 270 273 276 278 279 278 277 276 276 276 276 277 278 279 279 278 277 277 279 278 279 282 282 278 278 280 279 278 277 275 275 274 274 274 275 276 277 278 279 279
243 242 241 240 238 234 232 232 235 238 240 242 243 242 241 243 245 248 250 252 253 254 256 258 258 260 262 265 269 271 272 273 275 276 277 278 279 277 276 275 274 272 270 268 267 268 269 270 273 275 276 278 278 277 277 277 277 276 276 277 278 277 277 276 276 279 280 279 279 281 279 277 278 279 277 277 277 276 275 275 276 277 278 279 279 279 280 281
245 245 244 243 242 239 237 237 240 243 244 247 249 247 244 243 244 247 250 252 254 255 259 262 263 264 267 270 272 273 274 275 276 277 278 278 276 275 275 274 274 272 270 268 268 269 271 273 274 275 276 278 278 277 277 277 276 276 276 277 277 276 274 275 277 279 279 278 280 280 278 276 277 279 278 278 277 277 277 278 279 280 280 280 280 281 281 282
246 246 246 246 245 244 242 242 244 246 247 250 252 252 250 249 249 251 255 257 260 261 263 266 268 269 270 270 270 271 274 276 276 276 276 275 273 273 274 273 273 272 271 270 271 271 273 274 274 275 276 277 277 276 276 275 275 274 275 276 276 275 274 276 277 277 277 277 279 278 276 276 278 279 279 277 276 277 279 280 281 280 280 280 281 282 283 283
248 248 248 248 248 247 248 248 249 251 252 253 255 255 256 258 258 259 261 262 263 264 265 267 268 269 269 269 270 273 276 277 277 277 276 274 272 272 272 272 273 272 273 273 273 273 274 274 275 276 276 276 276 274 274 274 273 272 275 278 277 276 276 276 275 275 275 276 276 276 277 279 280 278 277 277 278 279 280 280 279 280 280 281 282 283 283 284
251 251 250 250 250 250 251 252 253 254 255 256 258 259 261 262 263 263 264 264 265 266 267 268 269 269 269 270 272 274 275 275 275 274 272 269 269 270 272 274 274 274 274 274 274 274 275 275 276 276 275 275 275 273 273 272 269 272 279 281 278 275 275 274 273 274 275 276 276 277 278 280 280 278 278 279 280 280 279 279 280 281 282 283 283 283 284 285